Flag for Colombia Weather past 2 weeks in Cali, Colombia

Now
70 °F

Scattered clouds.


Feels Like: 70 °F
Forecast: 69 / 79 °F
Wind: No wind

Location: Cali / Alfonso Bonillaaragon

Current Time: Dec 19, 2014 at 7:40:16 AM

Latest Report: Dec 19, 2014 at 7:00 AM


Visibility: N/A

Pressure: 29.98 "Hg

Humidity: 83%

Dew point: 64 °F

Location of CaliLocation

Historic Weather in Cali — Graph

°F

Cali temperature yesterday

Maximum temperature yesterday: 86 °F (at 2:00 PM)
Minimum temperature yesterday: 66 °F (at 2:00 AM)
Average temperature yesterday: 75 °F

Past Weeks' High & Low Weather Summary

 TemperatureHumidityPressure
High90 °F (Dec 8, 2:00 PM)100% (Dec 6, 1:00 AM)30.09 "Hg (Dec 6, 1:00 AM)
Low54 °F (Dec 17, 1:00 AM)40% (Dec 6, 3:00 PM)29.80 "Hg (Dec 8, 4:00 PM)
Average74 °F77%29.97 "Hg
* Reported Dec 4 6:00 AM — Dec 19 6:00 AM, Cali, Weather by CustomWeather, © 2014

Note: Actual official high and low records may vary slightly from our data, if they occured in-between our weather recording intervals... More about our weather records

Advertising

Cali weather history for previous 24 hours

 ConditionsComfort  
Time TempWeatherWind HumidityBarometerVisibility
6:00 AM
Dec 19
70 °FPartly cloudy.3 mph88%29.97 "HgN/A
5:00 AM70 °FPassing clouds.No wind88%29.93 "HgN/A
4:00 AM70 °FPassing clouds.No wind88%29.92 "HgN/A
3:00 AM70 °FPassing clouds.No wind88%29.92 "HgN/A
2:00 AM72 °FPassing clouds.5 mph78%29.94 "HgN/A
1:00 AM68 °FClear.5 mph88%29.96 "Hg10 mi
12:00 AM70 °FClear.5 mph83%29.97 "Hg10 mi
11:00 PM
Dec 18
72 °FPassing clouds.7 mph83%29.99 "HgN/A
10:00 PM73 °FPassing clouds.6 mph74%29.99 "HgN/A
9:00 PM75 °FPassing clouds.7 mph69%29.96 "HgN/A
8:00 PM75 °FPassing clouds.5 mph69%29.94 "HgN/A
7:00 PM77 °FPassing clouds.9 mph65%29.91 "HgN/A
6:00 PM81 °FPassing clouds.14 mph54%29.89 "HgN/A
5:00 PM82 °FPartly sunny.15 mph55%29.88 "HgN/A
4:00 PM86 °FScattered clouds.16 mph49%29.87 "HgN/A
3:00 PM84 °FScattered clouds.8 mph48%29.89 "HgN/A
2:00 PM86 °FScattered clouds.5 mph46%29.93 "HgN/A
1:00 PM84 °FScattered clouds.5 mph48%29.97 "HgN/A
12:00 PM82 °FScattered clouds.3 mph51%30.00 "Hg6 mi
11:00 AM81 °FPartly sunny.2 mph54%30.04 "Hg6 mi
10:00 AM77 °FScattered clouds.3 mph65%30.06 "Hg5 mi
9:00 AM73 °FScattered clouds.No wind74%30.08 "Hg3 mi
8:00 AM70 °FBroken clouds.No wind88%30.06 "Hg2 mi
7:00 AM68 °FFog.2 mph94%30.03 "Hg2 mi
Weather by CustomWeather, © 2014

See weather overviewHow to use our weather pages